Weather History for KFLD - December, 2012

Change the Weather History Date:

Tuesday, December 11, 2012

  Actual Average Record
Temperature  
Mean Temperature 23 °F -  
Max Temperature 27 °F 31 °F 57 °F (1949)
Min Temperature 19 °F 16 °F -10 °F (1977)
Degree Days  
Heating Degree Days 42    
Moisture  
Dew Point 20 °F    
Average Humidity 80    
Maximum Humidity 93    
Minimum Humidity 63    
Precipitation  
Precipitation 0.00 in - - ()
Sea Level Pressure  
Sea Level Pressure 29.95 in    
Wind  
Wind Speed 6 mph (SW)    
Max Wind Speed 17 mph    
Max Gust Speed 26 mph    
Visibility 9 miles    
Events Snow    
Averages and records for this station are not official NWS values.
T = Trace of Precipitation, MM = Missing Value Source: NWS Daily Summary

Daily Weather History Graph

Daily Weather History Graph

Search for Another Location

Airport or City:

Trip Planner

Search our weather history database for the weather conditions in past years. The results will help you decide how hot, cold, wet, or windy it might be!

Date:

Astronomy

Dec. 11, 2012 Rise Set
Actual Time 7:18 AM CST 4:16 PM CST
Civil Twilight 6:45 AM CST 4:49 PM CST
Nautical Twilight 6:09 AM CST 5:25 PM CST
Astronomical Twilight 5:34 AM CST 6:00 PM CST
Moon 5:10 AM CST (12/11) 2:57 PM CST (12/11)
Length of Visible Light 10h 04m
Length of Day
8h 58m
Waning Crescent, 4% of the Moon is Illuminated
Dec 11
Waning Crescent
Dec 13
New
Dec 19
First Quarter
Dec 28
Full
Jan 4
Last Quarter

Hourly Weather History & Observations

Time (CST) Temp. Windchill Dew Point Humidity Pressure Visibility Wind Dir Wind Speed Gust Speed Precip Events Conditions
12:53 AM 26.1 °F 20.5 °F 21.9 °F 84% 29.93 in 10.0 mi SW 4.6 mph - N/A   Overcast
1:53 AM 26.1 °F 21.9 °F 21.9 °F 84% 29.93 in 10.0 mi SW 3.5 mph - N/A   Overcast
2:35 AM 26.6 °F 22.6 °F 23.0 °F 86% 29.91 in 6.0 mi SSW 3.5 mph - 0.00 in Snow Light Snow
2:53 AM 26.1 °F 21.9 °F 23.0 °F 88% 29.94 in 5.0 mi SSW 3.5 mph - 0.00 in Snow Light Snow
3:01 AM 26.6 °F 22.6 °F 24.8 °F 93% 29.90 in 4.0 mi SW 3.5 mph - 0.00 in Snow Light Snow
3:11 AM 26.6 °F 21.2 °F 23.0 °F 86% 29.90 in 5.0 mi SW 4.6 mph - 0.00 in Snow Light Snow
3:19 AM 26.6 °F 21.2 °F 23.0 °F 86% 29.90 in 5.0 mi SW 4.6 mph - 0.00 in Snow Light Snow
3:53 AM 26.1 °F 19.4 °F 23.0 °F 88% 29.94 in 9.0 mi SW 5.8 mph - 0.00 in Snow Light Snow
4:13 AM 26.6 °F 21.2 °F 21.2 °F 80% 29.90 in 10.0 mi SW 4.6 mph - N/A   Overcast
4:53 AM 25.0 °F 16.3 °F 21.0 °F 85% 29.94 in 10.0 mi SW 8.1 mph - N/A   Overcast
5:53 AM 23.0 °F 11.7 °F 19.0 °F 85% 29.94 in 10.0 mi SSW 11.5 mph - N/A   Overcast
6:12 AM 21.2 °F 11.7 °F 17.6 °F 86% 29.91 in 10.0 mi SSW 8.1 mph - N/A   Scattered Clouds
6:53 AM 19.0 °F 12.3 °F 16.0 °F 88% 29.95 in 10.0 mi SSW 4.6 mph - N/A   Scattered Clouds
7:04 AM 19.4 °F 11.5 °F 17.6 °F 93% 29.91 in 10.0 mi SW 5.8 mph - N/A   Mostly Cloudy
7:53 AM 19.9 °F 11.1 °F 17.1 °F 89% 29.94 in 8.0 mi South 6.9 mph - N/A   Mostly Cloudy
8:17 AM 21.2 °F 10.9 °F 17.6 °F 86% 29.91 in 10.0 mi South 9.2 mph - N/A   Mostly Cloudy
8:53 AM 21.9 °F 9.8 °F 17.1 °F 82% 29.95 in 10.0 mi SSW 12.7 mph 19.6 mph N/A   Overcast
9:53 AM 23.0 °F 11.1 °F 17.1 °F 78% 29.95 in 10.0 mi SSW 12.7 mph - N/A   Overcast
10:53 AM 26.1 °F 13.1 °F 15.1 °F 63% 29.92 in 10.0 mi SSW 17.3 mph 26.5 mph N/A   Overcast
11:53 AM 26.1 °F 15.0 °F 15.1 °F 63% 29.90 in 10.0 mi SSW 12.7 mph 24.2 mph N/A   Overcast
12:53 PM 26.1 °F 14.5 °F 15.1 °F 63% 29.91 in 10.0 mi SW 13.8 mph - N/A   Overcast
1:53 PM 26.1 °F 15.0 °F 17.1 °F 69% 29.91 in 10.0 mi SW 12.7 mph - N/A   Overcast
2:53 PM 25.0 °F 13.1 °F 17.1 °F 72% 29.94 in 10.0 mi WSW 13.8 mph 18.4 mph N/A   Scattered Clouds
3:12 PM 24.8 °F 16.1 °F 17.6 °F 74% 29.91 in 10.0 mi SW 8.1 mph - N/A   Mostly Cloudy
3:40 PM 24.8 °F 16.1 °F 17.6 °F 74% 29.92 in 10.0 mi SW 8.1 mph - N/A   Mostly Cloudy
3:53 PM 25.0 °F 17.1 °F 17.1 °F 72% 29.96 in 10.0 mi SW 6.9 mph - N/A   Mostly Cloudy
4:53 PM 25.0 °F 15.5 °F 18.0 °F 75% 29.97 in 10.0 mi SW 9.2 mph - N/A   Overcast
5:53 PM 25.0 °F 16.3 °F 19.0 °F 78% 29.99 in 10.0 mi SSW 8.1 mph - N/A   Overcast
6:53 PM 26.1 °F 17.6 °F 19.0 °F 75% 30.00 in 10.0 mi SW 8.1 mph - N/A   Overcast
7:53 PM 27.0 °F 18.0 °F 19.9 °F 75% 30.02 in 5.0 mi SW 9.2 mph - 0.00 in Snow Light Snow
8:04 PM 26.6 °F 19.1 °F 19.4 °F 74% 29.99 in 8.0 mi SW 6.9 mph - 0.00 in Snow Light Snow
8:53 PM 26.1 °F 20.5 °F 21.9 °F 84% 30.04 in 6.0 mi SW 4.6 mph - 0.00 in Snow Light Snow
9:10 PM 26.6 °F 20.0 °F 21.2 °F 80% 30.00 in 9.0 mi SW 5.8 mph - 0.00 in Snow Light Snow
9:38 PM 26.6 °F 20.0 °F 21.2 °F 80% 30.00 in 9.0 mi SW 5.8 mph - 0.00 in Snow Light Snow
9:53 PM 26.1 °F 20.5 °F 21.9 °F 84% 30.04 in 9.0 mi SW 4.6 mph - 0.00 in Snow Light Snow
10:53 PM 26.1 °F - 21.9 °F 84% 30.07 in 10.0 mi Calm Calm - 0.00 in   Overcast
11:45 PM 24.8 °F - 21.2 °F 86% 30.05 in 10.0 mi Calm Calm - N/A   Mostly Cloudy
11:53 PM 25.0 °F 20.7 °F 21.0 °F 85% 30.09 in 10.0 mi SSW 3.5 mph - N/A   Mostly Cloudy